Flag for Saudi Arabia Weather past 2 weeks in Qatif, Saudi Arabia

Now
99 °F

Clear.


Feels Like: 95 °F
Forecast: 87 / 109 °F
Wind: 8 mph from East

Location: King Fahd International Airport

Current Time: Jul 29, 2014 at 7:52:16 PM

Latest Report: Jul 29, 2014 at 7:00 PM


Visibility: 10 mi

Pressure: 29.42 "Hg

Humidity: 19%

Dew point: 50 °F

Location of QatifLocation

Historic Weather in Qatif — Graph

°F

Qatif temperature yesterday

Maximum temperature yesterday: 109 °F (at 12:00 PM)
Minimum temperature yesterday: 88 °F (at 4:00 AM)
Average temperature yesterday: 100 °F

Past Weeks' High & Low Weather Summary

 TemperatureHumidityPressure
High113 °F (Jul 17, 1:00 PM)55% (Jul 17, 11:00 PM)29.59 "Hg (Jul 17, 11:00 PM)
Low82 °F (Jul 16, 5:00 AM)6% (Jul 16, 12:00 PM)29.33 "Hg (Jul 17, 4:00 PM)
Average99 °F18%29.46 "Hg
* Reported Jul 14 6:00 PM — Jul 29 6:00 PM, Qatif, Weather by CustomWeather, © 2014

Note: Actual official high and low records may vary slightly from our data, if they occured in-between our weather recording intervals... More about our weather records

Advertising

Qatif weather history for previous 24 hours

 ConditionsComfort  
Time TempWeatherWind HumidityBarometerVisibility
6:00 PM
Jul 29
102 °FSunny.12 mph18%29.39 "Hg10 mi
5:00 PM106 °FSunny.9 mph14%29.39 "Hg10 mi
4:00 PM109 °FSunny.10 mph12%29.39 "Hg10 mi
3:00 PM111 °FSunny.23 mph9%29.39 "Hg10 mi
2:00 PM111 °FSunny.21 mph9%29.42 "Hg10 mi
1:00 PM109 °FSunny.20 mph10%29.45 "Hg10 mi
12:00 PM109 °FSunny.23 mph11%29.45 "Hg10 mi
11:00 AM108 °FSunny.17 mph11%29.47 "Hg10 mi
10:00 AM106 °FSunny.14 mph13%29.47 "Hg10 mi
9:00 AM102 °FSunny.14 mph15%29.50 "Hg10 mi
8:00 AM97 °FSunny.14 mph14%29.47 "Hg10 mi
7:00 AM91 °FSunny.13 mph15%29.47 "Hg10 mi
6:00 AM88 °FSunny.9 mph17%29.47 "Hg10 mi
5:00 AM86 °FClear.10 mph17%29.45 "Hg10 mi
4:00 AM86 °FClear.8 mph17%29.45 "Hg5 mi
3:00 AM88 °FClear.8 mph16%29.45 "Hg4 mi
2:00 AM90 °FClear.9 mph14%29.45 "Hg4 mi
1:00 AM91 °FClear.9 mph20%29.45 "Hg4 mi
12:00 AM97 °FClear.10 mph18%29.45 "Hg4 mi
11:00 PM
Jul 28
97 °FClear.9 mph18%29.47 "Hg5 mi
10:00 PM100 °FClear.9 mph14%29.50 "Hg5 mi
9:00 PM102 °FClear.9 mph12%29.50 "Hg5 mi
8:00 PM102 °FClear.12 mph11%29.47 "Hg5 mi
7:00 PM104 °FClear.13 mph12%29.47 "Hg5 mi
Weather by CustomWeather, © 2014

See weather overviewHow to use our weather pages